YUNHAI-2 4 (43912 NORAD) Tracking and Keplerian Element Data

This shows tracking and keplerian element data for the satellite.

Feedback or suggestion? Click here.




ElementValue
Catalog43912
NameYUNHAI-2 4
Epoch Orbit301
Epoch Day20.74393393
Epoch Year2019
RAAN102.7987
Inclination50.011
Eccentricity0.0006578
Argument of Perigee328.9087
Mean Anonmoly31.1401
Mean Motion13.44337974
Decay Rate-1.04E-06
L11 43912U 18112D 19020.74393393 -.00000104 00000-0 43668-4 0 9992
L22 43912 50.0110 102.7987 0006578 328.9087 31.1401 13.44337974 3014

Live tracking and technical data element details for YUNHAI-2 4 (NORAD 43912). YUNHAI-2 4 can be tracked NOW for your location showing map with azimuth and elevation plus other details from your city location.

Track the satellite on the map from your city or location and see movement details for azimuth, elevation, latitude, longitude, range, height, and movement on the map or in text.







IsCatalogInMostPopularTable: catalog: 43912, numindb: 17
Update: records affected: 1



GetName: 43912 YUNHAI-2 4

Hit Count: updated at: Wed, 23 Jan 2019 02:48:50 GMT